Weather History for KDLH - March, 2014

Change the Weather History Date:

Friday, March 21, 2014

  Actual Average Record
Temperature  
Mean Temperature 23 °F 28 °F  
Max Temperature 33 °F 36 °F 68 °F (1910)
Min Temperature 13 °F 20 °F -14 °F (1885)
Degree Days  
Heating Degree Days 42 37  
Month to date heating degree days 992 864  
Since 1 July heating degree days 8433 7731  
Cooling Degree Days 0 0  
Month to date cooling degree days 0 0  
Year to date cooling degree days 0 0  
Moisture  
Dew Point 25 °F    
Average Humidity 81    
Maximum Humidity 92    
Minimum Humidity 69    
Precipitation  
Precipitation 0.57 in 0.05 in 0.89 in (1894)
Month to date precipitation 0.91 0.96  
Year to date precipitation 3.76 2.73  
Snow  
Snow 6.90 in 0.40 in 6.90 in (2014)
Month to date snowfall 14.9 9.9  
Since 1 July snowfall 98.7 75.5  
Snow Depth 22.00 in    
Sea Level Pressure  
Sea Level Pressure 29.82 in    
Wind  
Wind Speed 12 mph (ENE)    
Max Wind Speed 24 mph    
Max Gust Speed 33 mph    
Visibility 3 miles    
Events Fog , Snow    
T = Trace of Precipitation, MM = Missing Value Source: NWS Daily Summary

Daily Weather History Graph

Daily Weather History Graph

Search for Another Location

Airport or City:

Trip Planner

Search our weather history database for the weather conditions in past years. The results will help you decide how hot, cold, wet, or windy it might be!

Date:

Astronomy

Mar. 21, 2014 Rise Set
Actual Time 7:09 AM CDT 7:22 PM CDT
Civil Twilight 6:39 AM CDT 7:53 PM CDT
Nautical Twilight 6:03 AM CDT 8:28 PM CDT
Astronomical Twilight 5:27 AM CDT 9:05 PM CDT
Moon No Moon Rise 9:44 AM CDT (3/21)
Length of Visible Light 13h 13m
Length of Day
12h 13m
Waning Gibbous, 75% of the Moon is Illuminated
Mar 21
Waning Gibbous
Mar 23
Last Quarter
Mar 30
New
Apr 7
First Quarter
Apr 15
Full

Hourly Weather History & Observations

Time (CDT) Temp. Windchill Dew Point Humidity Pressure Visibility Wind Dir Wind Speed Gust Speed Precip Events Conditions
12:55 AM 30.0 °F 21.7 °F 19.9 °F 66% 29.93 in 9.0 mi ESE 9.2 mph - 0.00 in Snow Light Snow
1:55 AM 28.9 °F 21.1 °F 21.0 °F 72% 29.92 in 10.0 mi ESE 8.1 mph - 0.00 in   Mostly Cloudy
2:55 AM 28.9 °F 22.8 °F 19.9 °F 69% 29.91 in 10.0 mi East 5.8 mph - N/A   Overcast
3:55 AM 28.9 °F 22.8 °F 21.0 °F 72% 29.88 in 10.0 mi ESE 5.8 mph - N/A   Overcast
4:55 AM 28.0 °F 20.8 °F 21.0 °F 75% 29.88 in 10.0 mi ESE 6.9 mph - N/A   Overcast
5:55 AM 28.9 °F 21.9 °F 21.9 °F 75% 29.88 in 10.0 mi ESE 6.9 mph - 0.00 in Snow Light Snow
6:55 AM 28.9 °F 19.2 °F 21.9 °F 75% 29.85 in 10.0 mi ESE 11.5 mph - 0.00 in   Overcast
7:30 AM 28.0 °F 19.3 °F 23.0 °F 81% 29.80 in 1.0 mi SE 9.2 mph - 0.00 in Snow Light Snow
7:40 AM 28.9 °F 18.6 °F 24.1 °F 82% 29.79 in 0.8 mi SE 12.7 mph - 0.00 in Snow Light Snow
7:55 AM 28.0 °F 18.6 °F 25.0 °F 88% 29.85 in 1.0 mi SE 10.4 mph - 0.00 in Snow Light Snow
8:02 AM 28.0 °F 18.1 °F 25.0 °F 88% 29.78 in 0.8 mi ESE 11.5 mph - 0.00 in Snow Light Snow
8:17 AM 28.0 °F 18.6 °F 25.0 °F 88% 29.78 in 0.8 mi ESE 10.4 mph - 0.01 in Snow Light Snow
8:25 AM 28.0 °F 17.0 °F 25.0 °F 88% 29.77 in 0.8 mi SE 13.8 mph - 0.01 in Snow Light Snow
8:34 AM 28.0 °F 18.6 °F 25.0 °F 88% 29.76 in 0.8 mi ESE 10.4 mph - 0.02 in Snow Light Snow
8:47 AM 28.0 °F 18.1 °F 25.0 °F 88% 29.75 in 0.8 mi ESE 11.5 mph - 0.03 in Snow Light Snow
8:55 AM 28.0 °F 17.5 °F 25.0 °F 88% 29.81 in 0.5 mi East 12.7 mph - 0.03 in Fog , Snow Snow
9:08 AM 28.9 °F 18.6 °F 26.1 °F 89% 29.74 in 0.5 mi ESE 12.7 mph - 0.02 in Fog , Snow Snow
9:29 AM 28.0 °F 19.3 °F 26.1 °F 92% 29.74 in 0.2 mi ESE 9.2 mph - 0.04 in Fog , Snow Snow
9:55 AM 28.9 °F 20.4 °F 26.1 °F 89% 29.81 in 0.2 mi ESE 9.2 mph - 0.09 in Fog , Snow Heavy Snow
10:55 AM 28.9 °F 18.6 °F 26.1 °F 89% 29.81 in 0.1 mi ESE 12.7 mph - 0.18 in Fog , Snow Heavy Snow
11:14 AM 28.9 °F 18.2 °F 26.1 °F 89% 29.73 in 0.2 mi ESE 13.8 mph - 0.04 in Fog , Snow Snow
11:24 AM 28.9 °F 17.7 °F 26.1 °F 89% 29.73 in 0.2 mi ESE 15.0 mph - 0.06 in Fog , Snow Heavy Snow
11:55 AM 28.9 °F 17.7 °F 26.1 °F 89% 29.77 in 0.2 mi East 15.0 mph - 0.11 in Fog , Snow Snow
12:12 PM 28.9 °F 17.7 °F 26.1 °F 89% 29.69 in 0.2 mi East 15.0 mph - 0.02 in Fog , Snow Snow
12:22 PM 28.9 °F 18.6 °F 26.1 °F 89% 29.70 in 0.2 mi East 12.7 mph 23.0 mph 0.04 in Fog , Snow Snow
12:33 PM 28.9 °F 18.2 °F 26.1 °F 89% 29.70 in 0.5 mi East 13.8 mph - 0.05 in Fog , Snow Light Snow
12:55 PM 30.0 °F 19.5 °F 26.1 °F 85% 29.75 in 0.5 mi East 13.8 mph - 0.07 in Fog , Snow Light Snow
1:44 PM 30.0 °F 18.3 °F 26.1 °F 85% 29.69 in 1.0 mi East 17.3 mph - 0.02 in Snow Light Snow
1:55 PM 30.0 °F 19.1 °F 26.1 °F 85% 29.75 in 1.0 mi East 15.0 mph - 0.02 in Snow Light Snow
2:02 PM 30.0 °F 20.0 °F 26.1 °F 85% 29.69 in 1.0 mi East 12.7 mph - 0.00 in Snow Light Snow
2:55 PM 30.0 °F 20.5 °F 27.0 °F 88% 29.76 in 1.0 mi ENE 11.5 mph - 0.00 in Snow Light Snow
3:09 PM 30.0 °F 20.5 °F 27.0 °F 88% 29.70 in 1.2 mi ENE 11.5 mph - 0.00 in Snow Light Snow
3:30 PM 30.0 °F 20.5 °F 27.0 °F 88% 29.71 in 0.8 mi ENE 11.5 mph - 0.00 in Snow Light Snow
3:33 PM 30.0 °F 21.7 °F 27.0 °F 88% 29.71 in 1.0 mi NE 9.2 mph - 0.01 in Snow Light Snow
3:43 PM 30.0 °F 21.1 °F 27.0 °F 88% 29.72 in 0.8 mi NE 10.4 mph - 0.01 in Snow Light Snow
3:55 PM 30.0 °F 21.7 °F 27.0 °F 88% 29.79 in 0.5 mi NNE 9.2 mph - 0.01 in Fog , Snow Light Snow
4:02 PM 30.9 °F 23.5 °F 27.0 °F 85% 29.73 in 0.2 mi NNE 8.1 mph - 0.01 in Fog , Snow Snow
4:29 PM 30.9 °F 22.8 °F 27.0 °F 85% 29.75 in 0.2 mi North 9.2 mph - 0.03 in Fog , Snow Light Snow
4:41 PM 30.9 °F 22.2 °F 28.0 °F 89% 29.75 in 0.5 mi North 10.4 mph - 0.04 in Fog , Snow Light Snow
4:55 PM 30.9 °F 21.7 °F 28.0 °F 89% 29.82 in 0.5 mi North 11.5 mph - 0.04 in Fog , Snow Light Snow
5:04 PM 32.0 °F 23.6 °F 28.0 °F 85% 29.77 in 0.8 mi North 10.4 mph - 0.01 in Snow Light Snow
5:12 PM 32.0 °F 23.0 °F 27.0 °F 82% 29.78 in 1.2 mi North 11.5 mph - 0.01 in Snow Light Snow
5:51 PM 32.0 °F 24.8 °F 28.4 °F 87% 29.81 in 1.0 mi North 8.1 mph - 0.01 in Snow Light Snow
5:55 PM 32.0 °F 25.6 °F 28.0 °F 85% 29.88 in 0.8 mi North 6.9 mph - 0.01 in Snow Light Snow
6:09 PM 32.0 °F 24.8 °F 28.9 °F 88% 29.82 in 1.5 mi North 8.1 mph - 0.01 in Snow Light Snow
6:13 PM 32.0 °F 25.6 °F 28.9 °F 88% 29.82 in 2.0 mi NNW 6.9 mph - 0.01 in Snow Light Snow
6:19 PM 32.0 °F 24.8 °F 28.9 °F 88% 29.83 in 3.0 mi NNW 8.1 mph - 0.01 in Snow Light Snow
6:55 PM 33.1 °F 23.4 °F 28.0 °F 82% 29.91 in 7.0 mi North 13.8 mph 20.7 mph 0.01 in Snow Light Snow
7:06 PM 33.1 °F 23.4 °F 28.0 °F 82% 29.85 in 6.0 mi NNW 13.8 mph 21.9 mph 0.00 in Snow Light Snow
7:41 PM 33.1 °F 23.9 °F 27.0 °F 78% 29.87 in 9.0 mi NNW 12.7 mph 21.9 mph 0.00 in Snow Light Snow
7:55 PM 33.1 °F 23.4 °F 27.0 °F 78% 29.94 in 9.0 mi NNW 13.8 mph 27.6 mph 0.00 in Snow Light Snow
8:05 PM 32.0 °F 21.6 °F 27.0 °F 82% 29.89 in 2.5 mi NNW 15.0 mph - 0.00 in Snow Light Snow
8:16 PM 32.0 °F 20.5 °F 26.1 °F 79% 29.90 in 4.0 mi NNW 18.4 mph 29.9 mph 0.00 in Snow Light Snow
8:34 PM 30.0 °F 17.2 °F 25.0 °F 82% 29.92 in 4.0 mi NW 20.7 mph 28.8 mph 0.00 in Snow Light Snow
8:55 PM 28.9 °F 16.5 °F 24.1 °F 82% 30.00 in 6.0 mi NW 18.4 mph 28.8 mph 0.00 in Snow Blowing Snow
9:55 PM 27.0 °F 15.2 °F 21.0 °F 78% 30.04 in 6.0 mi NW 15.0 mph 26.5 mph 0.00 in Snow Light Snow
10:24 PM 26.1 °F 13.1 °F 19.0 °F 75% 29.98 in 6.0 mi NW 17.3 mph 26.5 mph 0.00 in Snow Light Snow
10:55 PM 21.9 °F 7.8 °F 15.1 °F 75% 30.08 in 7.0 mi NW 17.3 mph 33.4 mph 0.00 in   Overcast
11:41 PM 19.0 °F 5.0 °F 12.0 °F 74% 30.03 in 7.0 mi NW 15.0 mph 23.0 mph N/A   Scattered Clouds
11:55 PM 18.0 °F 2.2 °F 10.9 °F 74% 30.12 in 7.0 mi NW 18.4 mph 26.5 mph N/A   Scattered Clouds